Time,TemperatureF,DewpointF,PressureIn,WindDirection,WindDirectionDegrees,WindSpeedMPH,WindSpeedGustMPH,Humidity,HourlyPrecipIn,Conditions,Clouds,dailyrainin,SoftwareType,DateUTC
2013-07-31 00:13:00,52.6,52.0,30.07,South,186,2.0,8.0,97,0.00,,,0.00,weatherlink.com 1.10,2013-07-31 07:13:00,
2013-07-31 00:28:00,52.4,52.0,30.07,SSW,193,3.0,8.0,97,0.00,,,0.00,weatherlink.com 1.10,2013-07-31 07:28:00,
2013-07-31 00:43:00,52.5,52.0,30.07,SSE,165,1.0,7.0,98,0.00,,,0.00,weatherlink.com 1.10,2013-07-31 07:43:00,
2013-07-31 00:58:00,52.7,52.0,30.07,SSW,204,0.0,4.0,98,0.00,,,0.00,weatherlink.com 1.10,2013-07-31 07:58:00,
2013-07-31 01:13:00,52.9,52.0,30.07,WSW,246,0.0,5.0,98,0.00,,,0.00,weatherlink.com 1.10,2013-07-31 08:13:00,
2013-07-31 01:28:00,53.0,53.0,30.07,SW,214,2.0,4.0,98,0.00,,,0.00,weatherlink.com 1.10,2013-07-31 08:28:00,
2013-07-31 01:43:00,53.0,53.0,30.06,South,169,0.0,4.0,98,0.00,,,0.00,weatherlink.com 1.10,2013-07-31 08:43:00,
2013-07-31 01:58:00,53.1,53.0,30.06,SW,215,0.0,2.0,98,0.00,,,0.00,weatherlink.com 1.10,2013-07-31 08:58:00,
2013-07-31 02:13:00,53.0,53.0,30.05,SW,222,0.0,0.0,98,0.00,,,0.00,weatherlink.com 1.10,2013-07-31 09:13:00,
2013-07-31 02:28:00,53.2,53.0,30.05,ESE,113,0.0,0.0,98,0.00,,,0.00,weatherlink.com 1.10,2013-07-31 09:28:00,
2013-07-31 02:43:00,53.2,53.0,30.05,SSW,198,0.0,0.0,98,0.00,,,0.00,weatherlink.com 1.10,2013-07-31 09:43:00,
2013-07-31 02:58:00,53.0,53.0,30.05,South,191,0.0,1.0,98,0.00,,,0.00,weatherlink.com 1.10,2013-07-31 09:58:00,
2013-07-31 03:13:00,53.0,53.0,30.05,SW,233,2.0,3.0,98,0.00,,,0.00,weatherlink.com 1.10,2013-07-31 10:13:00,
2013-07-31 03:28:00,53.0,53.0,30.05,SSE,159,0.0,0.0,98,0.00,,,0.00,weatherlink.com 1.10,2013-07-31 10:28:00,
2013-07-31 03:43:00,53.1,53.0,30.05,SW,233,0.0,4.0,98,0.00,,,0.00,weatherlink.com 1.10,2013-07-31 10:43:00,
2013-07-31 03:58:00,52.9,52.0,30.05,SSW,194,0.0,0.0,98,0.00,,,0.00,weatherlink.com 1.10,2013-07-31 10:58:00,
2013-07-31 04:13:00,52.8,52.0,30.04,SW,221,0.0,0.0,98,0.00,,,0.00,weatherlink.com 1.10,2013-07-31 11:13:00,
2013-07-31 04:28:00,52.8,52.0,30.04,SW,214,0.0,0.0,98,0.00,,,0.00,weatherlink.com 1.10,2013-07-31 11:28:00,
2013-07-31 04:43:00,52.7,52.0,30.04,SW,236,0.0,0.0,98,0.00,,,0.00,weatherlink.com 1.10,2013-07-31 11:43:00,
2013-07-31 04:58:00,52.7,52.0,30.04,SW,229,0.0,5.0,98,0.00,,,0.00,weatherlink.com 1.10,2013-07-31 11:58:00,
2013-07-31 05:13:00,52.9,53.0,30.04,South,190,0.0,0.0,99,0.00,,,0.00,weatherlink.com 1.10,2013-07-31 12:13:00,
2013-07-31 05:28:00,52.9,52.0,30.04,SSW,208,0.0,0.0,98,0.00,,,0.00,weatherlink.com 1.10,2013-07-31 12:28:00,
2013-07-31 05:43:00,52.6,52.0,30.05,SSW,210,0.0,2.0,98,0.00,,,0.00,weatherlink.com 1.10,2013-07-31 12:43:00,
2013-07-31 05:58:00,52.6,52.0,30.05,SW,226,0.0,0.0,98,0.00,,,0.00,weatherlink.com 1.10,2013-07-31 12:58:00,
2013-07-31 06:13:00,52.6,52.0,30.05,SSW,198,0.0,4.0,98,0.00,,,0.00,weatherlink.com 1.10,2013-07-31 13:13:00,
2013-07-31 06:28:00,52.5,52.0,30.05,South,169,0.0,2.0,99,0.00,,,0.00,weatherlink.com 1.10,2013-07-31 13:28:00,
2013-07-31 06:43:00,52.6,52.0,30.05,SSW,195,0.0,-999.0,99,-99.99,,,0.00,weatherlink.com 1.10,2013-07-31 13:43:00,
2013-07-31 06:58:00,52.4,52.0,30.05,SW,229,0.0,0.0,98,0.00,,,0.00,weatherlink.com 1.10,2013-07-31 13:58:00,
2013-07-31 07:13:00,52.5,52.0,30.05,SSE,152,0.0,0.0,99,0.00,,,0.00,weatherlink.com 1.10,2013-07-31 14:13:00,
2013-07-31 07:28:00,52.7,53.0,30.06,WNW,283,0.0,0.0,99,0.00,,,0.00,weatherlink.com 1.10,2013-07-31 14:28:00,
2013-07-31 07:43:00,52.7,53.0,30.06,WSW,255,0.0,0.0,99,0.00,,,0.00,weatherlink.com 1.10,2013-07-31 14:43:00,
2013-07-31 07:58:00,53.0,53.0,30.07,WNW,282,0.0,0.0,99,0.00,,,0.00,weatherlink.com 1.10,2013-07-31 14:58:00,
2013-07-31 08:13:00,53.2,53.0,30.07,North,349,0.0,0.0,98,0.00,,,0.00,weatherlink.com 1.10,2013-07-31 15:13:00,
2013-07-31 08:28:00,53.3,53.0,30.07,West,259,0.0,2.0,98,0.00,,,0.00,weatherlink.com 1.10,2013-07-31 15:28:00,
2013-07-31 08:43:00,53.3,53.0,30.07,East,101,0.0,0.0,98,0.00,,,0.00,weatherlink.com 1.10,2013-07-31 15:43:00,
2013-07-31 08:58:00,53.6,53.0,30.07,SSW,208,2.0,5.0,98,0.00,,,0.00,weatherlink.com 1.10,2013-07-31 15:58:00,
2013-07-31 09:14:00,53.8,53.0,30.08,West,267,0.0,3.0,98,0.00,,,0.00,weatherlink.com 1.10,2013-07-31 16:14:00,
2013-07-31 09:29:00,54.2,53.0,30.08,SSW,210,4.0,4.0,97,0.00,,,0.00,weatherlink.com 1.10,2013-07-31 16:29:00,
2013-07-31 09:44:00,54.3,54.0,30.08,SSW,200,0.0,4.0,97,0.00,,,0.00,weatherlink.com 1.10,2013-07-31 16:44:00,
2013-07-31 09:59:00,55.1,54.0,30.08,WNW,287,0.0,4.0,96,0.00,,,0.00,weatherlink.com 1.10,2013-07-31 16:59:00,
2013-07-31 10:14:00,55.8,54.0,30.08,West,276,0.0,5.0,93,0.00,,,0.00,weatherlink.com 1.10,2013-07-31 17:14:00,
2013-07-31 10:29:00,57.0,55.0,30.08,South,184,0.0,3.0,92,0.00,,,0.00,weatherlink.com 1.10,2013-07-31 17:29:00,
2013-07-31 10:44:00,57.5,55.0,30.08,SE,131,0.0,4.0,90,0.00,,,0.00,weatherlink.com 1.10,2013-07-31 17:44:00,
2013-07-31 10:59:00,58.2,55.0,30.08,West,274,0.0,2.0,89,0.00,,,0.00,weatherlink.com 1.10,2013-07-31 17:59:00,
2013-07-31 11:14:00,59.6,55.0,30.08,WNW,284,0.0,4.0,85,0.00,,,0.00,weatherlink.com 1.10,2013-07-31 18:14:00,
2013-07-31 11:29:00,61.4,56.0,30.08,West,267,1.0,8.0,82,0.00,,,0.00,weatherlink.com 1.10,2013-07-31 18:29:00,
2013-07-31 11:44:00,63.5,57.0,30.08,West,278,0.0,5.0,79,0.00,,,0.00,weatherlink.com 1.10,2013-07-31 18:44:00,
2013-07-31 11:59:00,65.3,57.0,30.07,WNW,284,2.0,6.0,74,0.00,,,0.00,weatherlink.com 1.10,2013-07-31 18:59:00,
2013-07-31 12:14:00,65.9,57.0,30.07,WNW,285,3.0,6.0,73,0.00,,,0.00,weatherlink.com 1.10,2013-07-31 19:14:00,
2013-07-31 12:29:00,68.4,58.0,30.06,WSW,258,0.0,7.0,70,0.00,,,0.00,weatherlink.com 1.10,2013-07-31 19:29:00,
2013-07-31 12:44:00,71.7,59.0,30.05,SW,233,4.0,5.0,64,0.00,,,0.00,weatherlink.com 1.10,2013-07-31 19:44:00,
2013-07-31 12:59:00,72.6,58.0,30.05,WNW,301,0.0,6.0,61,0.00,,,0.00,weatherlink.com 1.10,2013-07-31 19:59:00,
2013-07-31 13:14:00,72.7,58.0,30.04,SE,132,2.0,8.0,60,0.00,,,0.00,weatherlink.com 1.10,2013-07-31 20:14:00,
2013-07-31 13:29:00,72.1,57.0,30.04,WNW,298,6.0,8.0,60,0.00,,,0.00,weatherlink.com 1.10,2013-07-31 20:29:00,
2013-07-31 13:44:00,72.6,57.0,30.04,SSW,197,2.0,13.0,59,0.00,,,0.00,weatherlink.com 1.10,2013-07-31 20:44:00,
2013-07-31 13:59:00,73.2,58.0,30.03,SW,222,9.0,12.0,59,0.00,,,0.00,weatherlink.com 1.10,2013-07-31 20:59:00,
2013-07-31 14:14:00,74.0,58.0,30.03,SW,235,2.0,10.0,58,0.00,,,0.00,weatherlink.com 1.10,2013-07-31 21:14:00,
2013-07-31 14:30:00,73.4,57.0,30.03,SW,215,8.0,11.0,57,0.00,,,0.00,weatherlink.com 1.10,2013-07-31 21:30:00,
2013-07-31 14:45:00,73.1,58.0,30.02,SSW,208,9.0,15.0,59,0.00,,,0.00,weatherlink.com 1.10,2013-07-31 21:45:00,
2013-07-31 15:00:00,73.4,58.0,30.02,SSW,195,5.0,13.0,59,0.00,,,0.00,weatherlink.com 1.10,2013-07-31 22:00:00,
2013-07-31 15:15:00,72.7,57.0,30.02,SSE,159,10.0,15.0,59,0.00,,,0.00,weatherlink.com 1.10,2013-07-31 22:15:00,
2013-07-31 15:30:00,73.0,58.0,30.01,SW,236,6.0,14.0,60,0.00,,,0.00,weatherlink.com 1.10,2013-07-31 22:30:00,
2013-07-31 15:45:00,72.7,57.0,30.01,SSW,200,7.0,17.0,59,0.00,,,0.00,weatherlink.com 1.10,2013-07-31 22:45:00,
2013-07-31 16:00:00,73.0,58.0,30.00,SW,228,8.0,15.0,59,0.00,,,0.00,weatherlink.com 1.10,2013-07-31 23:00:00,
2013-07-31 16:15:00,72.9,58.0,30.00,South,173,9.0,15.0,60,0.00,,,0.00,weatherlink.com 1.10,2013-07-31 23:15:00,
2013-07-31 16:30:00,73.5,57.0,29.99,SW,228,6.0,15.0,57,0.00,,,0.00,weatherlink.com 1.10,2013-07-31 23:30:00,
2013-07-31 16:45:00,73.6,57.0,29.98,South,188,5.0,15.0,57,0.00,,,0.00,weatherlink.com 1.10,2013-07-31 23:45:00,
2013-07-31 17:00:00,73.7,57.0,29.98,SW,218,15.0,15.0,56,0.00,,,0.00,weatherlink.com 1.10,2013-08-01 00:00:00,
2013-07-31 17:15:00,73.1,57.0,29.98,SSW,205,8.0,14.0,57,0.00,,,0.00,weatherlink.com 1.10,2013-08-01 00:15:00,
2013-07-31 17:30:00,72.8,57.0,29.97,SSW,212,6.0,15.0,57,0.00,,,0.00,weatherlink.com 1.10,2013-08-01 00:30:00,
2013-07-31 17:45:00,72.9,57.0,29.97,SE,143,4.0,12.0,58,0.00,,,0.00,weatherlink.com 1.10,2013-08-01 00:45:00,
2013-07-31 18:00:00,72.8,57.0,29.96,WSW,252,5.0,12.0,58,0.00,,,0.00,weatherlink.com 1.10,2013-08-01 01:00:00,
2013-07-31 18:15:00,72.7,57.0,29.96,South,176,4.0,16.0,58,0.00,,,0.00,weatherlink.com 1.10,2013-08-01 01:15:00,
2013-07-31 18:30:00,72.3,57.0,29.95,South,191,10.0,16.0,58,0.00,,,0.00,weatherlink.com 1.10,2013-08-01 01:30:00,
2013-07-31 18:45:00,72.1,57.0,29.95,SW,224,10.0,13.0,59,0.00,,,0.00,weatherlink.com 1.10,2013-08-01 01:45:00,
2013-07-31 19:00:00,71.5,56.0,29.95,WNW,288,3.0,13.0,59,0.00,,,0.00,weatherlink.com 1.10,2013-08-01 02:00:00,
2013-07-31 19:15:00,70.5,56.0,29.95,SW,233,9.0,11.0,60,0.00,,,0.00,weatherlink.com 1.10,2013-08-01 02:15:00,
2013-07-31 19:30:00,69.9,56.0,29.96,SW,219,5.0,10.0,61,0.00,,,0.00,weatherlink.com 1.10,2013-08-01 02:30:00,
2013-07-31 19:45:00,69.2,55.0,29.96,WSW,248,6.0,7.0,62,0.00,,,0.00,weatherlink.com 1.10,2013-08-01 02:45:00,
2013-07-31 20:00:00,68.1,55.0,29.96,SE,131,0.0,7.0,64,0.00,,,0.00,weatherlink.com 1.10,2013-08-01 03:00:00,
2013-07-31 20:15:00,66.2,55.0,29.96,South,191,3.0,7.0,67,0.00,,,0.00,weatherlink.com 1.10,2013-08-01 03:15:00,
2013-07-31 20:30:00,64.3,55.0,29.96,South,191,1.0,5.0,71,0.00,,,0.00,weatherlink.com 1.10,2013-08-01 03:30:00,
2013-07-31 20:45:00,63.1,54.0,29.96,WSW,246,1.0,3.0,73,0.00,,,0.00,weatherlink.com 1.10,2013-08-01 03:45:00,
2013-07-31 21:00:00,62.0,54.0,29.97,SSW,204,0.0,1.0,75,0.00,,,0.00,weatherlink.com 1.10,2013-08-01 04:00:00,
2013-07-31 21:15:00,61.0,54.0,29.97,SW,214,0.0,0.0,77,0.00,,,0.00,weatherlink.com 1.10,2013-08-01 04:15:00,
2013-07-31 21:30:00,60.2,54.0,29.98,SW,222,0.0,0.0,79,0.00,,,0.00,weatherlink.com 1.10,2013-08-01 04:30:00,
2013-07-31 21:45:00,59.1,53.0,29.98,SW,219,0.0,0.0,80,0.00,,,0.00,weatherlink.com 1.10,2013-08-01 04:45:00,
2013-07-31 22:00:00,58.2,53.0,29.98,SSW,197,0.0,0.0,83,0.00,,,0.00,weatherlink.com 1.10,2013-08-01 05:00:00,
2013-07-31 22:15:00,57.3,53.0,29.98,SSW,198,0.0,0.0,84,0.00,,,0.00,weatherlink.com 1.10,2013-08-01 05:15:00,
2013-07-31 22:31:00,56.7,52.0,29.99,SSW,203,0.0,0.0,85,0.00,,,0.00,weatherlink.com 1.10,2013-08-01 05:31:00,
2013-07-31 22:45:00,56.1,52.0,29.99,SSW,201,0.0,0.0,86,0.00,,,0.00,weatherlink.com 1.10,2013-08-01 05:45:00,
2013-07-31 23:00:00,55.4,52.0,29.99,SSW,201,0.0,0.0,87,0.00,,,0.00,weatherlink.com 1.10,2013-08-01 06:00:00,
2013-07-31 23:15:00,54.8,51.0,29.99,SSW,201,0.0,0.0,88,0.00,,,0.00,weatherlink.com 1.10,2013-08-01 06:15:00,
2013-07-31 23:31:00,54.5,52.0,29.99,SSW,201,0.0,0.0,90,0.00,,,0.00,weatherlink.com 1.10,2013-08-01 06:31:00,
2013-07-31 23:46:00,54.6,52.0,29.99,SE,129,0.0,0.0,90,0.00,,,0.00,weatherlink.com 1.10,2013-08-01 06:46:00,